Overview Statistics Trail Chart Weather Telemetry Raw packets
 

This is the latest recevied weather packets stored in our database for station/object K5FEP. If no packets are shown the sender has not sent any weather packets the latest 10 day(s).

<< 14 15 16 17 18 19 20 >>
Time Temp. Humidity Pressure Rain* Wind** Luminosity Snow
1788541289 38.33° C 37% 1014 hPa 0 mm - 914 W/m² -
1788540988 37.78° C 38% 1014.2 hPa 0 mm - 913 W/m² -
1788540688 37.78° C 38% 1014.1 hPa 0 mm - 914 W/m² -
1788540387 37.78° C 38% 1014.2 hPa 0 mm - 900 W/m² -
1788540083 38.33° C 37% 1014.2 hPa 0 mm - 890 W/m² -
1788539779 37.78° C 39% 1014.3 hPa 0 mm - 888 W/m² -
1788539474 37.22° C 39% 1014.4 hPa 0 mm - 888 W/m² -
1788539168 37.22° C 41% 1014.4 hPa 0 mm - 885 W/m² -
1788538863 37.22° C 42% 1014.4 hPa 0 mm - 865 W/m² -
1788538558 36.67° C 42% 1014.6 hPa 0 mm - 866 W/m² -
1788538253 36.67° C 42% 1014.7 hPa 0 mm - 850 W/m² -
1788537948 36.67° C 44% 1014.6 hPa 0 mm - 851 W/m² -
1788537644 36.67° C 41% 1014.6 hPa 0 mm - 840 W/m² -
1788537343 36.67° C 43% 1014.7 hPa 0 mm - 835 W/m² -
1788537038 35.56° C 46% 1014.7 hPa 0 mm - 822 W/m² -
1788536746 36.67° C 45% 1014.8 hPa 0 mm - 813 W/m² -
1788536427 35.56° C 46% 1014.8 hPa 0 mm - 800 W/m² -
1788536126 36.67° C 45% 1014.8 hPa 0 mm - 796 W/m² -
1788535823 36.11° C 46% 1014.8 hPa 0 mm - 782 W/m² -
1788535518 35.56° C 49% 1015 hPa 0 mm - 774 W/m² -
1788535222 35.56° C 49% 1014.9 hPa 0 mm - 759 W/m² -
1788534909 34.44° C 52% 1015.2 hPa 0 mm - 748 W/m² -
1788534608 34.44° C 51% 1015.1 hPa 0 mm - 740 W/m² -
1788534303 34.44° C 52% 1015.1 hPa 0 mm - 723 W/m² -
1788534002 34.44° C 52% 1015.2 hPa 0 mm - 705 W/m² -

* Rain latest hour (hover to see other rain measurements)
** Current wind speed in m/s (hover to see current wind gust speed)